[[{"header":{"parameterUnit":"m.s-1","parameterCategory":1,"la1":30.2991,"la2":30.254,"lo1":-89.0895,"lo2":-89.0444,"dy":0.0017,"dx":0.0017,"nx":28,"ny":28,"refTime":"2024-05-30T21:00:00:Z","depth":0,"parameterNumber":2,"parameterNumberName":"U-component_of_WINDS"},"data":[0,0,0,0,0,0,0,0,0,0,0,0,0,0,0,0,0,0,0,0,0,0,0,0,0,0,0,0,0,0,0,0,0,0,0,0,0,0,0,0,0,0,0,0,0,0,0,0,0,0,0,0,0,0,0,0,0,0,-3.6541,-3.6541,0,-3.653,-3.653,-3.653,-3.6463,-3.6461,-3.646,-3.6458,-3.6448,-3.6449,-3.645,0,0,0,0,0,0,0,0,0,0,0,0,0,-3.6506,-3.6507,-3.6541,-3.6541,-3.654,-3.653,-3.653,-3.6529,-3.6463,-3.6461,-3.6459,-3.6457,-3.6448,-3.6449,-3.645,0,0,0,0,0,0,0,0,0,0,0,0,0,-3.6511,-3.6507,-3.6541,-3.6506,-3.6503,-3.653,-3.653,-3.6529,-3.6464,-3.6461,-3.6459,-3.6456,-3.6447,-3.6449,-3.6451,-3.651,0,0,-3.6456,-3.6457,0,0,0,0,0,0,0,0,-3.651,-3.6512,-3.6511,-3.6508,-3.6505,-3.6495,-3.6513,-3.6523,-3.6464,-3.6479,-3.6458,-3.6455,-3.6466,-3.6466,-3.6469,-3.651,-3.651,-3.6456,-3.6458,-3.6458,-3.6459,0,0,0,0,0,0,0,-3.651,-3.6512,-3.6536,-3.6511,-3.6507,-3.6492,-3.649,-3.6515,-3.6486,-3.6477,-3.6472,-3.6472,-3.6463,-3.6468,-3.6468,-3.6509,-3.6456,-3.6458,-3.6459,-3.646,-3.6599,-3.6602,0,0,0,0,0,0,-3.6514,-3.6512,-3.6537,-3.6536,-3.6502,-3.6494,-3.6492,-3.6501,-3.6485,-3.6481,-3.6474,-3.6469,-3.6466,-3.6466,-3.6468,-3.6536,-3.6458,-3.646,-3.6461,-3.6597,-3.66,-3.6602,0,0,0,0,0,0,-3.6514,-3.6517,-3.6537,-3.6523,-3.6524,-3.6497,-3.6508,-3.6502,-3.6506,-3.6483,-3.6477,-3.6483,-3.6464,-3.6465,-3.65,-3.6535,-3.6461,-3.6463,-3.6593,-3.6597,-3.6601,-3.6674,0,0,0,0,0,0,-3.6513,-3.6517,-3.6539,-3.6524,-3.6525,-3.6569,-3.651,-3.6503,-3.6509,-3.6502,-3.649,-3.6486,-3.6462,-3.6498,-3.6502,-3.6536,-3.6464,-3.659,-3.6595,-3.66,-3.6668,-3.668,-3.669,0,0,0,0,0,-3.6512,-3.656,-3.6541,-3.6544,-3.6552,-3.6571,-3.6572,-3.6543,-3.6512,-3.6534,-3.652,-3.6486,-3.6531,-3.6502,-3.6506,-3.6541,-3.6588,-3.6594,-3.6599,-3.6663,-3.6677,-3.6689,0,0,0,0,0,0,-3.6581,-3.6558,-3.6536,-3.658,-3.6578,-3.656,-3.6587,-3.6559,-3.6566,-3.656,-3.6524,-3.6522,-3.6562,-3.6556,-3.6524,-3.6599,-3.6554,-3.6561,-3.6601,-3.6614,-3.6625,-3.6624,-3.6466,0,0,0,0,0,-3.6601,-3.6619,-3.6598,-3.6639,-3.6639,-3.6614,-3.6621,-3.6599,-3.6596,-3.6595,-3.6583,-3.6581,-3.6595,-3.6604,-3.6616,-3.6668,-3.6664,-3.6694,-3.6705,-3.6714,-3.672,-3.6746,-3.6759,-3.6622,-3.6622,-3.6621,0,0,-3.6643,-3.6633,-3.6646,-3.6653,-3.6648,-3.6668,-3.6613,-3.6636,-3.665,-3.6598,-3.663,-3.6622,-3.6618,-3.6662,-3.668,-3.6657,-3.6757,-3.6721,-3.6728,-3.6729,-3.6754,-3.6767,-3.6778,-3.6626,-3.6625,-3.6624,0,0,-3.6729,-3.6723,-3.6757,-3.6754,-3.6749,-3.6732,-3.674,-3.6727,-3.6719,-3.6751,-3.6712,-3.6729,-3.6753,-3.6752,-3.6754,-3.6842,-3.6812,-3.6847,-3.6902,-3.6929,-3.6939,-3.6949,-3.6979,-3.699,-3.6853,-3.6854,-3.6854,0,-3.6781,-3.6808,-3.6778,-3.6803,-3.6807,-3.6762,-3.6796,-3.6795,-3.6794,-3.6798,-3.6773,-3.6802,-3.6797,-3.6839,-3.6861,-3.6865,-3.6873,-3.6847,-3.694,-3.695,-3.6958,-3.6986,-3.6998,-3.6858,-3.6857,-3.6857,-3.6857,0,-3.6873,-3.6893,-3.692,-3.692,-3.6928,-3.6958,-3.6932,-3.6944,-3.6922,-3.6908,-3.6941,-3.6933,-3.6942,-3.6951,-3.693,-3.6991,-3.6976,-3.6947,-3.69,-3.6976,-3.7002,-3.7012,-3.6864,-3.6862,-3.6861,-3.686,0,0,-3.6999,-3.6983,-3.6993,-3.6993,-3.6985,-3.6999,-3.7028,-3.7036,-3.7046,-3.7048,-3.707,-3.7093,-3.7065,-3.7068,-3.7047,-3.7071,-3.714,-3.7038,-3.7037,-3.7056,-3.7206,-3.7227,-3.724,-3.7121,-3.7123,-3.7124,-3.7206,0,-3.708,-3.7126,-3.71,-3.715,-3.7168,-3.7126,-3.7151,-3.7149,-3.7137,-3.7151,-3.7138,-3.7154,-3.7117,-3.7118,-3.714,-3.7127,-3.7169,-3.7121,-3.7141,-3.7142,-3.7141,-3.7254,-3.7276,-3.7353,-3.7216,-3.7218,-3.7219,0,-3.718,-3.7186,-3.7237,-3.7226,-3.7233,-3.7255,-3.7261,-3.7275,-3.7272,-3.7262,-3.7267,-3.724,-3.7267,-3.7224,-3.7261,-3.7229,-3.7236,-3.7231,-3.7233,-3.7232,-3.7183,-3.7254,-3.7377,-3.7388,-3.7235,-3.7233,-3.7232,0,-3.7265,-3.7286,-3.732,-3.7321,-3.7309,-3.7326,-3.7322,-3.7317,-3.7324,-3.733,-3.7334,-3.7343,-3.7348,-3.7356,-3.7333,-3.7304,-3.7373,-3.7328,-3.7365,-3.7366,-3.738,-3.7379,-3.7504,-3.7388,-3.7388,-3.7387,-3.7387,0,-3.7358,-3.739,-3.7358,-3.7378,-3.7414,-3.7385,-3.7421,-3.7413,-3.7409,-3.7428,-3.7394,-3.7412,-3.7381,-3.7396,-3.7379,-3.7412,-3.7415,-3.7407,-3.7402,-3.7409,-3.741,-3.7412,-3.7405,-3.739,-3.739,-3.7389,-3.7389,0,-3.7458,-3.7437,-3.7471,-3.7457,-3.7455,-3.7482,-3.747,-3.7489,-3.7476,-3.75,-3.7504,-3.7483,-3.7499,-3.7478,-3.7492,-3.748,-3.7525,-3.7513,-3.7526,-3.7521,-3.7559,-3.7555,-3.7688,-3.7704,-3.758,-3.7581,-3.7582,0,-3.7517,-3.7541,-3.7531,-3.754,-3.7538,-3.7555,-3.7562,-3.7535,-3.7543,-3.7543,-3.7562,-3.7575,-3.7584,-3.7613,-3.7599,-3.761,-3.7596,-3.7642,-3.7598,-3.7604,-3.7595,-3.7594,-3.7596,-3.7651,-3.7652,-3.7653,-3.7654,0,-3.7624,-3.7613,-3.7624,-3.7632,-3.7642,-3.7647,-3.765,-3.766,-3.7632,-3.7644,-3.766,-3.7667,-3.7682,-3.7696,-3.7703,-3.7699,-3.7672,-3.7669,-3.7678,-3.7685,-3.7691,-3.7687,-3.7548,-3.7665,-3.7664,-3.7664,-3.7663,-3.7663,-3.7704,-3.7724,-3.7719,-3.7733,-3.7733,-3.7736,-3.7753,-3.7742,-3.7755,-3.7765,-3.7749,-3.7769,-3.7767,-3.7774,-3.7774,-3.7789,-3.777,-3.7783,-3.7786,-3.7789,-3.7794,-3.769,-3.7791,-3.7791,-3.779,-3.779,-3.779,0,-3.7808,-3.7804,-3.7817,-3.7822,-3.7833,-3.7807,-3.7809,-3.782,-3.7839,-3.7839,-3.7849,-3.7868,-3.7881,-3.7869,-3.788,-3.7895,-3.7883,-3.7899,-3.7897,-3.7896,-3.7812,-3.7802,-3.7909,-3.7909,-3.7909,-3.7909,-3.7909,-3.7909,-3.7863,-3.7895,-3.7884,-3.7915,-3.791,-3.793,-3.7933,-3.7937,-3.7936,-3.7959,-3.797,-3.7962,-3.7958,-3.7968,-3.798,-3.7976,-3.7981,-3.8001,-3.7993,-3.7914,-3.7902,-3.7891,-3.7882,-3.8003,-3.8003,-3.8075,-3.8076,-3.8077]},{"header":{"parameterUnit":"m.s-1","parameterCategory":1,"la1":30.2991,"la2":30.254,"lo1":-89.0895,"lo2":-89.0444,"dy":0.0017,"dx":0.0017,"nx":28,"ny":28,"refTime":"2024-05-30T21:00:00:Z","depth":0,"parameterNumber":3,"parameterNumberName":"V-component_of_WINDS"},"data":[0,0,0,0,0,0,0,0,0,0,0,0,0,0,0,0,0,0,0,0,0,0,0,0,0,0,0,0,0,0,0,0,0,0,0,0,0,0,0,0,0,0,0,0,0,0,0,0,0,0,0,0,0,0,0,0,0,0,4.1734,4.1734,0,4.1736,4.1736,4.1736,4.1701,4.17,4.1699,4.1698,4.1699,4.17,4.17,0,0,0,0,0,0,0,0,0,0,0,0,0,4.1701,4.1702,4.1734,4.1734,4.1734,4.1736,4.1736,4.1736,4.1701,4.17,4.1699,4.1698,4.1698,4.17,4.1701,0,0,0,0,0,0,0,0,0,0,0,0,0,4.1711,4.1703,4.1734,4.1717,4.1716,4.1736,4.1736,4.1736,4.1701,4.17,4.1698,4.1697,4.1698,4.1699,4.1701,4.1737,0,0,4.1705,4.1705,0,0,0,0,0,0,0,0,4.171,4.1712,4.172,4.1718,4.1717,4.1717,4.1724,4.1736,4.1701,4.1707,4.1698,4.1696,4.1706,4.1706,4.171,4.1737,4.1737,4.1705,4.1706,4.1706,4.1707,0,0,0,0,0,0,0,4.171,4.1712,4.1735,4.172,4.1718,4.1709,4.1709,4.1726,4.1714,4.1706,4.1704,4.1704,4.1705,4.1709,4.1709,4.1737,4.1705,4.1706,4.1707,4.1707,4.1795,4.1796,0,0,0,0,0,0,4.1711,4.1711,4.1735,4.1735,4.171,4.1711,4.1711,4.1718,4.1714,4.1712,4.1705,4.1703,4.1707,4.1708,4.1709,4.1751,4.1706,4.1708,4.1708,4.1793,4.1795,4.1797,0,0,0,0,0,0,4.1711,4.1714,4.1735,4.1722,4.1724,4.1713,4.1722,4.1719,4.1722,4.1713,4.1711,4.1712,4.1706,4.1707,4.1731,4.1751,4.1708,4.1709,4.1792,4.1794,4.1796,4.1836,0,0,0,0,0,0,4.171,4.1714,4.1727,4.1723,4.1725,4.1756,4.1723,4.172,4.1725,4.1721,4.1718,4.1717,4.1705,4.1729,4.1732,4.1752,4.171,4.179,4.1793,4.1795,4.1833,4.1839,4.1845,0,0,0,0,0,4.1709,4.1738,4.1728,4.1731,4.1742,4.1757,4.1758,4.1744,4.1727,4.174,4.1735,4.1717,4.1749,4.1731,4.1735,4.1755,4.1788,4.1792,4.1795,4.183,4.1838,4.1845,0,0,0,0,0,0,4.1744,4.1737,4.1726,4.1755,4.1757,4.1751,4.1768,4.1753,4.176,4.1756,4.1739,4.1739,4.1765,4.1762,4.1743,4.1791,4.1765,4.1769,4.1791,4.1798,4.1804,4.1804,4.1712,0,0,0,0,0,4.1756,4.1769,4.1762,4.1788,4.179,4.1779,4.1785,4.1774,4.1776,4.1776,4.1772,4.1774,4.1784,4.1791,4.18,4.1833,4.1832,4.1849,4.1855,4.186,4.1864,4.1881,4.1888,4.1808,4.1808,4.1808,0,0,4.1779,4.1777,4.1786,4.1795,4.1796,4.1809,4.178,4.1795,4.1805,4.1778,4.18,4.1797,4.1798,4.1826,4.1838,4.1825,4.1886,4.1865,4.1869,4.1869,4.1885,4.1893,4.1899,4.181,4.181,4.181,0,0,4.1828,4.1828,4.185,4.1851,4.1853,4.1845,4.1851,4.1847,4.1845,4.1866,4.1846,4.1858,4.1877,4.1878,4.1881,4.1933,4.1917,4.1937,4.1968,4.1985,4.1991,4.1997,4.2015,4.2021,4.194,4.1941,4.1941,0,4.1857,4.1877,4.1863,4.188,4.1885,4.1862,4.1884,4.1886,4.189,4.1894,4.1879,4.1903,4.1902,4.193,4.1942,4.1946,4.1951,4.1936,4.1992,4.1997,4.2002,4.2019,4.2026,4.1943,4.1943,4.1942,4.1942,0,4.1912,4.1926,4.1944,4.1949,4.1956,4.1975,4.1964,4.1973,4.1963,4.1957,4.1979,4.1978,4.1986,4.1992,4.1982,4.2019,4.2011,4.1995,4.1968,4.2012,4.2028,4.2034,4.1946,4.1945,4.1945,4.1944,0,0,4.1982,4.198,4.1987,4.1989,4.1989,4.2,4.2019,4.2028,4.2036,4.204,4.2055,4.2072,4.2057,4.2061,4.205,4.2065,4.2106,4.2047,4.2047,4.2057,4.2147,4.2158,4.2166,4.2096,4.2097,4.2098,4.2146,0,4.2029,4.2061,4.205,4.2083,4.2096,4.2075,4.2092,4.2094,4.209,4.21,4.2095,4.2107,4.2087,4.2089,4.2103,4.2098,4.2123,4.2095,4.2109,4.211,4.2108,4.2174,4.2186,4.2232,4.2152,4.2153,4.2154,0,4.2088,4.2095,4.213,4.2128,4.2134,4.2149,4.2156,4.2167,4.2169,4.2165,4.217,4.2157,4.2175,4.215,4.2176,4.2156,4.2162,4.2161,4.2162,4.2162,4.2134,4.2175,4.2246,4.2253,4.2164,4.2163,4.2162,0,4.2135,4.2153,4.2176,4.2179,4.2178,4.2189,4.219,4.2191,4.2197,4.2204,4.2207,4.2216,4.2221,4.2228,4.2218,4.2201,4.2244,4.2219,4.2241,4.2241,4.225,4.2249,4.2322,4.2256,4.2256,4.2255,4.2255,0,4.2188,4.221,4.2197,4.2211,4.2235,4.2222,4.2246,4.2244,4.2245,4.2259,4.2242,4.2254,4.224,4.2252,4.2244,4.2266,4.2268,4.2265,4.2263,4.2266,4.2267,4.2269,4.2265,4.2257,4.2257,4.2256,4.2256,0,4.2244,4.2237,4.226,4.2258,4.2258,4.2276,4.2274,4.2287,4.2282,4.2299,4.2302,4.2295,4.2307,4.2298,4.2311,4.2305,4.2334,4.2328,4.2333,4.2331,4.2354,4.2351,4.243,4.2439,4.2367,4.2368,4.2369,0,4.2278,4.2294,4.2295,4.2302,4.2304,4.2317,4.2323,4.2312,4.2319,4.2324,4.2336,4.2348,4.2356,4.2377,4.2373,4.2382,4.2375,4.2402,4.2377,4.238,4.2375,4.2374,4.2375,4.2407,4.2408,4.2409,4.2409,0,4.2339,4.2335,4.2345,4.2355,4.2363,4.237,4.2375,4.2383,4.2371,4.238,4.2393,4.24,4.2413,4.2425,4.2433,4.2433,4.2419,4.2418,4.2423,4.2426,4.2429,4.2427,4.2346,4.2415,4.2415,4.2414,4.2414,4.2414,4.2384,4.2398,4.2401,4.2413,4.2416,4.2422,4.2434,4.2431,4.2442,4.2452,4.2444,4.246,4.2462,4.2472,4.2474,4.2486,4.2475,4.2483,4.2485,4.2487,4.249,4.2428,4.2488,4.2487,4.2487,4.2487,4.2487,0,4.2444,4.2445,4.2457,4.2465,4.2475,4.2462,4.2467,4.2476,4.249,4.2494,4.2503,4.2518,4.253,4.2527,4.2537,4.2547,4.2541,4.255,4.2548,4.2549,4.2499,4.2493,4.2555,4.2555,4.2555,4.2555,4.2555,4.2555,4.2476,4.2499,4.2495,4.2519,4.252,4.2535,4.2539,4.2544,4.2547,4.2565,4.2575,4.2573,4.2574,4.2584,4.2594,4.2593,4.2597,4.2608,4.2605,4.2559,4.2552,4.2546,4.254,4.261,4.261,4.2653,4.2653,4.2653]}]]